Location: ??????
(55.8274°N, 37.9338°E)
Time: 17:55:55
(UTC+00:00)

Cosmos 2266 Rocket - Pass Details

Date: 14 April 2024
Orbit: 935 x 1006 km, 82.9° (Epoch: 26 May)

Event Time Altitude Azimuth Distance (km) Brightness Sun altitude
Rises 01:43:37 0° 181° (S) 3,613 6.7 -6.2°
Reaches altitude 10° 01:46:06 10° 179° (S) 2,664 6.0 -5.9°
Maximum altitude 01:52:08 72° 97° (E) 992 4.3 -5.1°
Drops below altitude 10° 01:58:10 10° 14° (NNE) 2,660 6.9 -4.3°
Sets 02:00:39 0° 13° (NNE) 3,608 7.5 -4.0°
